Weather in Rantepao

Indonesia     2°58′07″S   119°53′49″E
temp.,
°C
wind,
m/s
gust,
m/s
humid.,
%
clouds,
%
prec.,
mm/h
press.,
hPa
HPBL,
m
13 june, sun
sun1323:00+19n009990 1.4 101518
02:00+19w009992 1.8 101314
05:00+19nw1098100 0.4 101317
08:00+21nne019685 2.0 101477
11:00+24ese118230 2.1 1013604
14:00+22ene119561 3.8 101163
17:00+22ene119551 2.8 101144
20:00+19w119750 3.8 101312
14 june, mon
mon1423:00+18w119839 0.0 101416
02:00+18w11987 0.4 101323
05:00+17w119754 0.4 101326
08:00+20wsw0191100 0.7 1014127
11:00+24e117992 0.9 1013749
14:00+22ene1296100 5.2 1011224
17:00+21ene1298100 3.7 1011175
20:00+19wnw1198100 5.0 101311
15 june, tue
tue1523:00+19w019995 0.1 101415
02:00+19wsw1198100 0.8 101226
05:00+18w119893 0.8 101223
08:00+20se009282 0.8 1014164
11:00+26e226098 0.0 10121217
14:00+25e227024 1.2 10091093
17:00+22e129380 1.2 101096
20:00+19nw009866 3.4 101412
16 june, wed
wed1623:00+18wnw119790 0.0 101413
02:00+18wnw119781 0.0 101215
05:00+18w1196100 0.0 101316
08:00+20ne019186 0.0 1014169
11:00+26e226196 0.0 10121151
14:00+26ene226424 0.2 10101077
17:00+22e128682 0.7 1011165
20:00+19nw10985 0.9 101411
17 june, thu
thu1723:00+18wnw119864 0.0 101512
02:00+17wnw1198100 0.0 101418
05:00+17wnw119726 0.0 101422
08:00+21nw01825 0.0 1015220
11:00+26ene226334 0.1 10131197
14:00+24e228130 1.8 1011818
17:00+22e129516 2.1 1011245
20:00+19nw119811 3.0 101412